Weather Roundup
Issued by NWS Chicago, IL

Home | Current Version | Previous Version | Text Only | Print | Product List | Glossary Off
Versions: 1 2 3 4 5 6 7 8 9 10 11 12 13 14 15 16 17 18 19 20 21 22 23 24 25 26 27 28 29 30 31 32 33 34 35 36 37 38 39 40 41 42 43 44 45 46 47 48 49 50

000
NZUS59 KLOT 160258
HRRLOT

CHICAGO AREA WEATHER ROUNDUP
NATIONAL WEATHER SERVICE CHICAGO/ROMEOVILLE IL
1000 PM CDT TUE APR 15 2014

NOTE: "FAIR" INDICATES FEW OR NO CLOUDS BELOW 12,000 FEET WITH NO
SIGNIFICANT WEATHER AND/OR OBSTRUCTIONS TO VISIBILITY.

* THESE STATIONS ARE NOT UNDER NWS QUALITY CONTROL. THEY ALSO MAY NOT
  REPORT WEATHER SUCH AS PRECIPITATION OR FOG.

ILZ005-006-012>014-019>023-160400-
NORTHEAST ILLINOIS

CITY           SKY/WX    TMP DP  RH WIND       PRES   REMARKS
OHARE          CLEAR     31  19  61 S5        30.19R WCI  26
MIDWAY         CLEAR     35  20  54 S5        30.20R WCI  31
AURORA         CLEAR     31  22  69 SE3       30.19R
WAUKEGAN       CLEAR     30  22  72 SE6       30.19R WCI  24
DUPAGE AIRPORT CLEAR     29  22  75 SE5       30.18S WCI  24
WHEELING       CLEAR     32  20  61 SE5       30.21R WCI  27
NORTHERLY IS     N/A     34  21  59 S5          N/A  WCI  30
$$

WIZ051-052-058>065-066-070>072-160400-
SOUTHEAST WISCONSIN

CITY           SKY/WX    TMP DP  RH WIND       PRES   REMARKS
MILWAUKEE      PTCLDY    28  20  71 SE5       30.20R WCI  23
KENOSHA*       CLEAR     28  21  75 S7        30.19R WCI  21
RACINE*        CLEAR     30  22  72 S9        30.21R WCI  22
$$

INZ001>003-010>013-019-020-160400-
NORTHWEST INDIANA

CITY           SKY/WX    TMP DP  RH WIND       PRES   REMARKS
GARY*          NOT AVBL
MICHIGAN CITY* NOT AVBL
RENSSELAER*    NOT AVBL
VALPARAISO     CLEAR     28  15  58 SE3       30.22R
$$

LMZ740>746-160400-
SOUTHERN LAKE MICHIGAN

STATION/POSITION TIME  SKY/WX   TEMP WIND        PRES    VSBY
                                AIR  DIR/SP/G
                 (UTC)          (F)  (DEG/KT/KT) (MB)    (MI)
HARRISON CRIB    0200            33  130/ 12/ 14   N/A
BURNHAM HARBOR   0200            34  170/  5/  9   N/A
CALUMET HARBOR   0200            33  150/  3/  3 1023.6R
BURNS HARBOR     NOT AVBL
MICHIGAN CITY    0200            31   70/  3/  4   N/A
$$

ABBREVIATIONS USED IN REMARKS
   TC - TEMPERATURE IN CELSIUS
  WCI - WIND CHILL INDEX
   HX - HEAT INDEX
  VSB - VISIBILITY
$$


USA.gov is the U.S. government's official web portal to all federal, state and local government web resources and services.